Regional Weather Roundup
Issued by NWS Charleston, WV

Home | Current Version | Previous Version | Graphics & Text | Print | Product List | Glossary On
Versions: 1 2 3 4 5 6 7 8 9 10 11 12 13 14 15 16 17 18 19 20 21 22 23 24 25 26 27
000
ASUS41 KRLX 210710
RWRRLX
West Virginia Regional Weather Roundup
National Weather Service Charleston WV
300 AM EDT MON AUG 21 2017

Note: "fair" indicates few or no clouds below 12,000 feet with no
significant weather and/or obstructions to visibility.

WVZ003-210800-
Northern Panhandle of West Virginia

CITY           SKY/WX    TMP DP  RH WIND       PRES   REMARKS
WHEELING       MOCLDY    70  62  76 CALM      30.16S
$$

WVZ009-210800-
Northwest West Virginia

CITY           SKY/WX    TMP DP  RH WIND       PRES   REMARKS
PARKERSBURG    CLOUDY    70  68  93 CALM      30.18S FOG
$$

WVZ006-210800-
Western West Virginia

CITY           SKY/WX    TMP DP  RH WIND       PRES   REMARKS
HUNTINGTON     PTCLDY    70  68  93 CALM      30.14F
$$

WVZ015-210800-
West Central West Virginia

CITY           SKY/WX    TMP DP  RH WIND       PRES   REMARKS
CHARLESTON     PTCLDY    68  67  96 CALM      30.16S
$$

WVZ022-031-210800-
North Central West Virginia

CITY           SKY/WX    TMP DP  RH WIND       PRES   REMARKS
CLARKSBURG     CLEAR     64  63  96 CALM      30.18S FOG
MORGANTOWN     CLOUDY    69  62  78 CALM      30.18F
$$

WVZ025-035-042-045-210800-
Southern West Virginia

CITY           SKY/WX    TMP DP  RH WIND       PRES   REMARKS
BECKLEY        CLEAR     69  63  81 SE7       30.26S
LOGAN            N/A     68  66  94 CALM      30.20S
BLUEFIELD      CLOUDY    71  62  73 SE3       30.29R
LEWISBURG      CLOUDY    63  62  98 CALM      30.26S FOG
$$

WVZ047-210800-
Northern Mountains of West Virginia

CITY           SKY/WX    TMP DP  RH WIND       PRES   REMARKS
ELKINS         FOG       62  60  93 CALM      30.25S VSB 1/2
$$

WVZ052-210800-
Eastern Panhandle of West Virginia

CITY           SKY/WX    TMP DP  RH WIND       PRES   REMARKS
MARTINSBURG    CLOUDY    69  65  86 CALM      30.18S
PETERSBURG     CLEAR     69  68  99 CALM      30.20S FOG
$$




USA.gov is the U.S. government's official web portal to all federal, state and local government web resources and services.